Location: Cactus School
(34.5700°N, 118.0931°W)
Time: 04:29:39
(UTC-08:00)

Vanguard 2 - Visible Passes

Search period start: 20 November 2019 00:00
Search period end: 30 November 2019 00:00
Orbit: 554 x 2937 km, 32.9° (Epoch: 20 November)

Date Brightness Start Highest point End Pass type
(mag) Time Alt. Az. Time Alt. Az. Time Alt. Az.
20 Nov 11.5 04:28:03 10° S 04:38:33 22° SSE 04:46:40 10° ESE visible
21 Nov 11.2 04:44:09 10° SSW 04:56:40 29° SSE 05:05:44 10° E visible
22 Nov 11.8 02:55:59 10° S 03:03:36 15° SE 03:10:20 10° ESE visible
22 Nov 10.9 05:00:53 10° SSW 05:14:46 38° SSE 05:24:19 10° E visible
23 Nov 11.6 03:10:28 10° S 03:21:40 21° SE 03:30:57 10° ESE visible
23 Nov 10.6 05:18:03 10° SW 05:32:50 46° SSE 05:42:38 10° E visible
24 Nov 11.3 03:26:16 10° SSW 03:39:42 29° SSE 03:50:19 10° E visible
24 Nov 10.3 05:35:34 10° SW 05:50:56 56° SSE 06:00:47 10° E visible
25 Nov 11.9 01:40:14 10° SSE 01:46:27 13° SE 01:52:19 10° ESE visible
25 Nov 11.0 03:42:45 10° SSW 03:57:43 36° SSE 04:09:06 10° E visible
25 Nov 10.1 05:53:22 10° WSW 06:09:01 65° SSE 06:18:50 10° E visible
26 Nov 11.6 01:55:26 12° S 02:04:23 19° SE 02:14:06 10° ESE visible
26 Nov 10.7 03:59:44 10° SW 04:15:44 45° SSE 04:27:33 10° E visible
27 Nov 11.4 02:14:23 19° S 02:22:16 26° SE 02:33:57 10° E visible
27 Nov 10.5 04:17:04 10° SW 04:33:47 54° SSE 04:45:48 10° E visible
28 Nov 11.1 02:32:53 26° S 02:40:09 34° SE 02:53:02 10° E visible
28 Nov 10.3 04:34:42 10° SW 04:51:52 63° SSE 05:03:56 10° E visible
29 Nov 11.7 00:49:32 15° SE 00:49:32 15° SE 00:55:38 10° ESE visible
29 Nov 10.8 02:51:02 32° S 02:58:04 42° SSE 03:11:40 10° E visible
29 Nov 10.2 04:52:35 10° WSW 05:09:58 71° SSE 05:21:59 10° E visible
